Find Starlink 37132

NORAD ID: 68233 Int'l Des: 2026-054 Owner: SPXS Country: US Constellation: starlink operational
LEOCIRCULAR

リアルタイム位置

3D地球を読み込み中...

Starlink 37132について

説明を読み込み中...

次回通過

Passes for default location (London). Set your location on the main map for personalized predictions.

高度履歴

Loading altitude history...

軌道要素

1 68233U 26054B 26122.16175315 .00074433 00000-0 13333-2 0 9997
2 68233 53.1606 47.4494 0001220 106.6334 253.4809 15.49316021 7195
Epoch: May 2, 2026 • Age: 4 hours

現在のステータス

高度 437.6 km
速度 7.65 km/s
衛星直下点 -52.50°S, 39.03°W
打ち上げ日 Mar 17, 2026
運用期間 0.1 years
タイプ internet

技術仕様

分類 Payload
質量 575.00 kg
乾燥質量 530.00 kg
総質量 575.00 kg
長さ 0.30 m
直径 4.10 m
スパン 29.00 m
形状 Box + pan
製造者 SPXS
バスタイプ Starlink V2MO
フェーズステータス In Orbit
所有者/国 SPXS/US

Most Searched